User: anonymous   Login
Location: Cactus School
(34.5700°N, 118.0931°W)
Time: 06:30:16
(UTC-07:00)
Language:

N. Korean satellite - Orbit

View from above orbital plane
View from above orbital plane
View from above satellite
View from above satellite

Ground track
Ground track

The orbit data is extracted from the following two-line orbital elements,

1 39026U 12072A   18170.90841349 +.00001161 +00000-0 +46002-4 0  9992
2 39026 097.2100 181.1809 0037895 315.4432 044.3762 15.26767271306013
Epoch (UTC): 19 June 2018 21:48:06
Eccentricity: 0.0037895
inclination: 97.2100°
perigee height: 459 km
apogee height: 511 km
right ascension of ascending node: 181.1809°
argument of perigee: 315.4432°
revolutions per day: 15.26767271
mean anomaly at epoch: 44.3762°
orbit number at epoch: 30601

The dashed part of the orbit path shows where the satellite is in the earth's shadow,  

DLR